Find Starlink 36474

NORAD ID: 67353 Int'l Des: 2026-003 Owner: SPXS Country: US Constellation: starlink operational
LEOCIRCULAR

当前视图

正在加载3D地球...

About Starlink 36474

Starlink 36474 (NORAD 67353) is a starlink constellation satellite (v2 mini) launched Jan 9, 2026 by SPXS of US. It operates in LEO, CIRCULAR orbit with a mass of 575.00 kg.

关于 Starlink 36474

正在加载描述...

即将过境

Passes for default location (London). Set your location on the main map for personalized predictions.

高度历史

Loading altitude history...

两行轨道根数

1 67353U 26003V 26194.12973244 .00012412 00000-0 45966-3 0 9992
2 67353 42.9993 239.0597 0001183 290.9749 69.0976 15.27590409 28009
Epoch: Jul 13, 2026 • Age: 23 hours

当前状态

高度 483.3 km
远地点 / 近地点 N/A
速度 7.63 km/s
星下点 23.24°N, 68.83°E
发射日期 Jan 9, 2026
运行时间 0.5 years
类型 internet

技术详情

分类 Payload
质量 575.00 kg
干质量 530.00 kg
总质量 575.00 kg
长度 0.30 m
直径 4.10 m
跨度 29.00 m
形状 Box + pan
制造商 SPXS
平台类型 Starlink V2MO
阶段状态 In Orbit
所有者/国家 SPXS/US

Most Searched